This is the latest recevied weather packets stored in our database for station/object SR7U-1. If no packets are shown the sender has not sent any weather packets the latest 1 day(s).
| Time | Temp. | Humidity | Pressure | Rain* | Wind** | Luminosity | Snow |
|---|---|---|---|---|---|---|---|
| 1778048093 | 17.78° C | 50% | 1005.9 hPa | - | - | - | - |
| 1778046335 | 17.78° C | 45% | 1005.9 hPa | - | - | - | - |
| 1778045615 | 17.78° C | 47% | 1006 hPa | - | - | - | - |
| 1778044782 | 16.11° C | 51% | 1006 hPa | - | - | - | - |
| 1778043955 | 16.67° C | 51% | 1005.8 hPa | - | - | - | - |
| 1778043090 | 15° C | 55% | 1005.8 hPa | - | - | - | - |
| 1778042225 | 13.89° C | 57% | 1005.7 hPa | - | - | - | - |
| 1778040650 | 13.33° C | 59% | 1005.7 hPa | - | - | - | - |
| 1778039830 | 12.78° C | 60% | 1005.7 hPa | - | - | - | - |
| 1778038962 | 12.22° C | 61% | 1005.8 hPa | - | - | - | - |
| 1778038164 | 11.67° C | 65% | 1005.6 hPa | - | - | - | - |
| 1778037267 | 11.67° C | 63% | 1005.7 hPa | - | - | - | - |
| 1778036382 | 12.22° C | 62% | 1005.7 hPa | - | - | - | - |
| 1778034740 | 12.22° C | 61% | 1005.7 hPa | - | - | - | - |
| 1778033985 | 12.22° C | 60% | 1005.9 hPa | - | - | - | - |
| 1778033088 | 12.22° C | 60% | 1005.9 hPa | - | - | - | - |
| 1778032302 | 10.56° C | 68% | 1006.1 hPa | - | - | - | - |
| 1778031460 | 12.22° C | 61% | 1006.1 hPa | - | - | - | - |
| 1778030730 | 11.67° C | 60% | 1006.1 hPa | - | - | - | - |
| 1778029930 | 11.67° C | 63% | 1006 hPa | - | - | - | - |
| 1778029055 | 11.67° C | 62% | 1006.3 hPa | - | - | - | - |
| 1778028300 | 13.89° C | 54% | 1006.4 hPa | - | - | - | - |
| 1778027413 | 12.78° C | 54% | 1006.4 hPa | - | - | - | - |
| 1778026638 | 12.78° C | 57% | 1006.2 hPa | - | - | - | - |
| 1778025045 | 12.78° C | 55% | 1006.5 hPa | - | - | - | - |
* Rain since midnight (hover to see other rain measurements)
** Current wind speed in m/s (hover to see current wind gust speed)